Location: Akçaalan
(36.4796°N, 30.2030°E)
Time: 10:34:01
(UTC+00:00)

Daily predictions for brighter satellites

Satellite Brightness Start Highest point End
(mag) Time Altitude Azimuth Time Altitude Azimuth Time Altitude Azimuth
Lacrosse 4 Rocket 2.1 16:30:20 10° N 16:34:22 36° ENE 16:38:18 10° SE
Cosmos 372 Rocket 4.2 16:31:31 10° NNW 16:36:44 80° WSW 16:41:56 10° SSE
Cosmos 1674 3.8 16:34:25 10° NNE 16:36:51 19° ENE 16:39:17 10° SE
Meteor 1-5 Rocket 4.4 16:31:25 10° S 16:37:01 82° W 16:42:52 10° N
SeaSat 1 4.1 16:32:50 10° N 16:37:22 38° WNW 16:41:53 10° SW
Aureole 1 Rocket 3.9 16:34:04 10° NNW 16:37:34 40° WSW 16:40:32 10° S
ATLAS CENTAUR R/B 2.5 16:35:14 10° SSE 16:37:35 17° ESE 16:40:00 10° ENE
Iridium 4 Rocket 3.7 16:34:00 10° NNE 16:37:45 32° E 16:41:33 10° SSE
NOSS 0 Rocket 4.3 16:33:31 10° S 16:39:22 44° ESE 16:45:15 10° NE
Cosmos 1340 2.6 16:36:11 10° SSW 16:39:23 70° W 16:42:39 10° N
Cosmos 1151 Rocket 2.9 16:37:13 10° N 16:41:29 75° E 16:45:41 10° SSE
ACS3 Solar Sail 3.6 16:40:02 10° E 16:42:57 14° ENE 16:45:53 10° NNE
NOAA 6 4.2 16:38:09 10° S 16:43:14 77° WSW 16:48:22 10° NNW
ATLAS CENTAUR R/B 3.6 16:38:13 10° NW 16:43:26 59° SW 16:51:25 10° SSE
Timation 2 Rocket 4.2 16:38:23 10° NNW 16:44:48 86° WSW 16:51:28 10° SSE
Cosmos 1937 Rocket 3.6 16:39:48 10° NNW 16:45:06 84° WSW 16:50:24 10° SSE
Cosmos 2233 Rocket 4.0 16:39:04 10° S 16:45:11 89° E 16:51:22 10° N
Meteor 1-4 Rocket 3.8 16:45:16 10° NE 16:46:36 13° ENE 16:47:16 12° E
Cosmos 2322 3.9 16:41:10 10° SSW 16:46:48 77° WNW 16:52:28 10° NNE
Cosmos 1943 Rocket 3.9 16:45:20 10° NNE 16:48:12 14° NE 16:51:02 10° E
USA 308 2.6 16:48:06 10° NNE 16:48:50 13° NE 16:48:52 13° NE
CBERS 1 LM4 rocket 4.4 16:48:42 10° SSE 16:53:35 72° ENE 16:58:42 10° N
Cosmos 1066 Rocket 4.4 16:49:28 10° N 16:55:13 55° ENE 17:00:51 10° SSE
Resurs 1-3 3.7 16:52:06 10° SSE 16:56:18 52° ENE 17:00:31 10° N
BREEZE-M DEB (TANK) 3.8 16:54:42 10° S 16:56:38 22° SE 16:58:15 15° E
Cosmos 1400 Rocket 2.8 16:55:38 10° N 16:59:19 50° E 17:02:58 10° SSE
Cosmos 1726 2.8 16:58:53 10° SSW 17:01:31 41° W 17:04:10 10° N
BlueWalker 3 3.0 16:58:12 10° NNW 17:01:32 30° NE 17:03:43 17° E
SAR-Lupe-2 3.4 17:03:38 10° SSE 17:07:11 76° ENE 17:10:45 10° N
USA 59 Rocket 0.9 17:06:04 10° NNW 17:10:04 40° ENE 17:13:41 18° ESE
COSMOS 2428 3.4 17:04:57 10° SW 17:10:34 60° WNW 17:16:14 10° NNE
Meteor PRIRODA 3.3 17:09:43 10° SSE 17:12:58 60° ENE 17:16:13 10° N
Okean 3 Rocket 3.8 17:09:43 10° SSE 17:13:59 46° E 17:18:15 10° NNE
Cosmos 1536 3.0 17:12:10 10° SSE 17:15:44 41° E 17:19:21 10° NNE
Okean O Rocket 3.0 17:20:21 20° ENE 17:20:39 20° ENE 17:23:50 10° NNE
Cosmos 1842 3.2 17:17:31 10° N 17:21:03 49° E 17:22:56 24° SE
Cosmos 1515 Rocket 4.2 17:18:31 10° NNE 17:22:26 32° ENE 17:23:40 27° ESE
CZ-4B DEB 4.1 17:18:13 10° SSE 17:23:42 75° ENE 17:29:12 10° N
Cosmos 1707 2.8 17:21:41 10° N 17:25:06 43° E 17:26:00 35° ESE
NOSS 3-3 (C) 3.8 17:20:17 10° S 17:25:09 46° ESE 17:30:39 10° NE
Cosmos 2278 Rocket 2.5 17:22:40 10° N 17:28:06 45° ENE 17:30:47 27° ESE
CZ-4B R/B 3.5 17:25:01 21° SE 17:28:19 44° ENE 17:33:25 10° N
NOSS 2-1 (C) 3.9 17:26:09 10° NNW 17:30:19 62° ENE 17:33:19 26° SE
CZ-4 R/B 1.1 17:28:42 19° SSE 17:31:16 76° ENE 17:35:08 10° N
Meteor 2-10 4.2 17:27:33 10° S 17:32:56 58° E 17:38:29 10° NNE
Cosmos 1500 Rocket 4.4 17:33:48 29° ENE 17:33:48 29° ENE 17:36:57 10° NNE
ADEOS 3.8 17:28:53 10° S 17:34:04 69° WSW 17:39:16 10° NNW
Resurs 01 Rocket 1.7 17:32:50 29° SE 17:34:49 53° ENE 17:39:07 10° N
GEOS 3 Rocket 3.9 17:32:34 29° ESE 17:34:55 49° NE 17:39:54 10° NNW
Meteor 2-17 Rocket 4.3 17:29:32 10° N 17:35:35 70° E 17:41:32 10° SSE
PAYLOAD B 4.2 17:31:24 12° SSE 17:36:33 74° ENE 17:42:09 10° N
Cosmos 44 Rocket 4.4 17:33:18 10° NW 17:37:41 40° WSW 17:42:00 10° S
CZ-4B R/B 3.8 17:33:11 10° S 17:37:50 60° WSW 17:42:34 10° NNW
TSX-5 4.0 17:35:15 10° NW 17:38:21 52° WSW 17:40:06 24° S
NOSS 3-3 (A) 3.5 17:34:14 10° SSW 17:39:19 67° ESE 17:45:07 10° NE
Cosmos 2208 Rocket 4.0 17:37:31 10° S 17:42:37 57° ESE 17:47:48 10° NNE
Helios 1A 4.3 17:39:41 10° N 17:43:30 40° WNW 17:47:18 10° SW
Okean-O 4.4 17:45:38 18° NE 17:45:38 18° NE 17:47:32 10° NNE
USA 186 1.6 17:45:12 77° NE 17:45:12 77° NE 17:48:19 10° N
SPOT 1/Viking Rocket 4.2 17:40:21 10° S 17:45:24 55° W 17:50:29 10° NNW
Aureole 3 Rocket 4.2 17:40:11 10° SSE 17:47:30 50° E 17:52:51 10° NNE
USA 290 2.1 17:44:18 10° NNW 17:47:32 85° NNE 17:47:32 85° NNE
Cosmos 1408 Rocket 3.4 17:46:06 31° SSE 17:48:02 64° E 17:52:23 10° NNE
Cosmos 2237 Rocket 2.4 17:44:08 10° SSW 17:49:44 73° WNW 17:55:22 10° NNE
Cosmos 1607 4.3 17:44:16 10° S 17:50:17 43° ESE 17:56:18 10° NE
CZ-4B R/B 3.2 17:49:18 24° S 17:51:25 61° W 17:55:20 10° NNW
KORONAS-FOTON 4.4 17:48:20 10° NNW 17:51:56 52° W 17:54:01 22° SSW
CSL-04 Rocket 3.6 17:50:07 35° SE 17:52:20 66° ENE 17:57:37 10° N
ISS -1.1 17:53:10 10° WNW 17:55:35 18° NNW 17:57:44 11° NNE
Meteor 1-11 Rocket 3.7 17:54:49 10° S 18:00:29 86° W 18:06:05 10° N
NOSS 2-1 (E) 4.2 18:03:12 10° NW 18:07:36 65° WSW 18:09:34 39° S
Cosmos 158 Rocket 4.2 18:03:58 10° SSW 18:08:48 63° WNW 18:13:38 10° N
CARTOSAT-1 4.0 18:09:12 40° SSW 18:10:25 56° W 18:14:37 10° NNW
Cosmos 1356 Rocket 4.2 18:06:29 10° NNW 18:10:31 48° W 18:11:52 34° SW
Lacrosse 4 Rocket 4.0 18:09:22 10° WNW 18:12:14 17° WSW 18:15:04 10° SSW
ATLAS CENTAUR R/B 3.2 18:11:43 10° WSW 18:14:43 26° NW 18:17:50 10° N
Cosmos 1428 Rocket 4.3 18:11:09 10° N 18:17:14 67° E 18:17:47 63° ESE
In-Cosmos 22 4.3 18:17:09 10° NNW 18:22:47 70° W 18:24:24 46° SSW
Cosmos 2369 Rocket 4.2 18:21:19 10° NNE 18:23:25 15° NE 18:23:25 15° NE
ACS3 Solar Sail 1.8 18:24:20 53° SSE 18:26:03 90° W 18:32:30 10° NNW
Sich 1 4.1 18:30:57 41° NNW 18:30:57 41° NNW 18:33:57 10° N
Terra 4.0 18:35:11 16° NNE 18:35:11 16° NNE 18:36:18 10° N
Cosmos 1943 Rocket 2.1 18:27:01 10° NNW 18:32:32 78° WSW 18:32:34 78° WSW
Nadezhda 4 Rocket 4.4 18:28:18 10° NNW 18:34:28 62° W 18:37:05 35° SSW
Cosmos 2195 Rocket 4.3 18:28:32 10° N 18:34:37 82° ENE 18:34:37 82° ENE
BlueWalker 3 4.3 18:36:15 10° WNW 18:37:58 21° W 18:37:58 21° W
USA 32 4.4 18:34:34 10° N 18:38:54 61° NNW 18:38:54 61° NNW
Cosmos 2026 Rocket 4.0 18:35:51 10° N 18:41:19 68° NNE 18:41:19 68° NNE
Cosmos 1092 Rocket 4.0 18:36:07 10° N 18:41:49 70° NNE 18:41:49 70° NNE
SL-16 R/B 3.8 18:53:32 25° NNE 18:53:32 25° NNE 18:55:45 10° NNE
Cosmos 1634 Rocket 4.1 18:51:55 67° N 18:51:55 67° N 18:57:19 10° N
Okean O Rocket 3.4 18:57:42 29° WNW 18:57:42 29° WNW 19:00:39 10° NNW
USA 59 Rocket 2.4 18:55:47 10° WNW 18:59:38 23° WSW 19:00:06 23° SW
Resurs 01 Rocket 4.5 19:10:18 11° WSW 19:11:30 12° W 19:13:05 10° WNW
Cosmos 2278 Rocket 4.1 19:07:33 10° NW 19:11:47 22° W 19:12:39 21° WSW
ACS3 Solar Sail 4.4 20:09:36 11° W 20:10:47 11° W 20:12:46 10° WNW
SL-16 R/B 4.3 23:51:12 26° ENE 23:51:33 26° ENE 23:56:31 10° N
